When you browse on this site, cookies collect data to enhance your experience and personalize the content and advertising you see.
Visit our Privacy Policy to learn more. By continuing to use the site, you agree to this use of cookies and data.
  • In Hungary
  • List of Countries
  • For 7 days
  • Water Temperature
  • Weather Map
  • News
  • Weather Widgets
  • user-avatar
    Login

    Hourly Weather Fortaleza

    Today, 18 November, Monday

    Time Temperature Precipitation Wind Pressure Humidity
    00:00 +27°C° 0 mm 3 mps 755 mmHg 84%
    01:00 +27°C° 0.1 mm 3 mps 755 mmHg 84%
    02:00 +27°C° 0.1 mm 3 mps 755 mmHg 84%
    03:00 +27°C° 0.1 mm 3 mps 755 mmHg 83%
    04:00 +28°C° 0.1 mm 3 mps 756 mmHg 82%
    05:00 +28°C° 0.1 mm 4 mps 756 mmHg 82%
    06:00 +28°C° 0.1 mm 4 mps 756 mmHg 81%
    07:00 +29°C° 0 mm 5 mps 757 mmHg 74%
    08:00 +32°C° 0 mm 5 mps 757 mmHg 66%
    09:00 +33°C° 0 mm 5 mps 757 mmHg 59%
    10:00 +34°C° 0 mm 6 mps 757 mmHg 56%
    11:00 +35°C° 0 mm 6 mps 757 mmHg 53%
    12:00 +35°C° 0 mm 6 mps 756 mmHg 50%
    13:00 +35°C° 0 mm 6 mps 756 mmHg 52%
    14:00 +34°C° 0 mm 6 mps 755 mmHg 54%
    15:00 +34°C° 0 mm 7 mps 754 mmHg 55%
    16:00 +33°C° 0 mm 6 mps 755 mmHg 61%
    17:00 +32°C° 0 mm 6 mps 755 mmHg 68%
    18:00 +29°C° 0 mm 5 mps 755 mmHg 74%
    19:00 +29°C° 0 mm 5 mps 756 mmHg 76%
    20:00 +29°C° 0 mm 5 mps 756 mmHg 78%
    21:00 +29°C° 0 mm 5 mps 756 mmHg 80%
    22:00 +29°C° 0 mm 5 mps 756 mmHg 81%
    23:00 +28°C° 0 mm 5 mps 756 mmHg 82%

    Tomorrow, 19 November, Tuesday

    Time Temperature Precipitation Wind Pressure Humidity
    00:00 +28°C° 0 mm 5 mps 756 mmHg 82%
    01:00 +28°C° 0 mm 5 mps 756 mmHg 81%
    02:00 +28°C° 0 mm 6 mps 756 mmHg 80%
    03:00 +28°C° 0 mm 6 mps 756 mmHg 79%
    04:00 +28°C° 0.1 mm 6 mps 756 mmHg 78%
    05:00 +28°C° 0.1 mm 6 mps 757 mmHg 77%
    06:00 +29°C° 0.1 mm 7 mps 757 mmHg 76%
    07:00 +29°C° 0.1 mm 7 mps 757 mmHg 73%
    08:00 +30°C° 0.1 mm 7 mps 758 mmHg 70%
    09:00 +30°C° 0.1 mm 6 mps 758 mmHg 66%
    10:00 +32°C° 0 mm 7 mps 758 mmHg 61%
    11:00 +33°C° 0 mm 7 mps 757 mmHg 56%
    12:00 +35°C° 0 mm 7 mps 757 mmHg 51%
    13:00 +34°C° 0 mm 6 mps 756 mmHg 53%
    14:00 +34°C° 0 mm 6 mps 755 mmHg 55%
    15:00 +33°C° 0 mm 6 mps 755 mmHg 57%
    16:00 +32°C° 0 mm 6 mps 755 mmHg 62%
    17:00 +30°C° 0 mm 5 mps 755 mmHg 67%
    18:00 +29°C° 0 mm 5 mps 755 mmHg 72%
    19:00 +28°C° 0 mm 5 mps 755 mmHg 75%
    20:00 +28°C° 0 mm 5 mps 756 mmHg 77%
    21:00 +28°C° 0 mm 5 mps 756 mmHg 80%
    22:00 +28°C° 0 mm 5 mps 756 mmHg 80%
    23:00 +28°C° 0 mm 5 mps 756 mmHg 79%

    Day after tomorrow, 20 November, Wednesday

    Time Temperature Precipitation Wind Pressure Humidity
    00:00 +28°C° 0 mm 6 mps 756 mmHg 79%
    01:00 +28°C° 0.1 mm 6 mps 756 mmHg 79%
    02:00 +28°C° 0.1 mm 6 mps 756 mmHg 79%
    03:00 +28°C° 0.1 mm 6 mps 756 mmHg 79%
    04:00 +28°C° 0.1 mm 6 mps 756 mmHg 78%
    05:00 +28°C° 0.1 mm 6 mps 757 mmHg 77%
    06:00 +28°C° 0.1 mm 6 mps 757 mmHg 76%
    07:00 +29°C° 0.1 mm 6 mps 757 mmHg 71%
    08:00 +30°C° 0.1 mm 6 mps 758 mmHg 65%
    09:00 +32°C° 0.1 mm 6 mps 758 mmHg 59%
    10:00 +33°C° 0 mm 6 mps 757 mmHg 57%
    11:00 +33°C° 0 mm 7 mps 757 mmHg 55%
    12:00 +34°C° 0 mm 7 mps 757 mmHg 53%
    13:00 +33°C° 0 mm 7 mps 756 mmHg 54%
    14:00 +33°C° 0 mm 7 mps 755 mmHg 55%
    15:00 +32°C° 0 mm 7 mps 755 mmHg 57%
    16:00 +32°C° 0 mm 6 mps 755 mmHg 62%
    17:00 +30°C° 0 mm 6 mps 755 mmHg 67%
    18:00 +29°C° 0 mm 6 mps 755 mmHg 71%
    19:00 +28°C° 0 mm 6 mps 756 mmHg 73%
    20:00 +28°C° 0 mm 6 mps 756 mmHg 74%
    21:00 +28°C° 0 mm 6 mps 756 mmHg 76%
    22:00 +28°C° 0 mm 6 mps 756 mmHg 77%
    23:00 +28°C° 0 mm 6 mps 756 mmHg 77%

    21 November, Thursday

    Time Temperature Precipitation Wind Pressure Humidity
    00:00 +28°C° 0 mm 6 mps 756 mmHg 78%
    01:00 +28°C° 0 mm 6 mps 755 mmHg 78%
    02:00 +27°C° 0 mm 6 mps 755 mmHg 78%
    03:00 +27°C° 0 mm 6 mps 755 mmHg 78%
    04:00 +27°C° 0 mm 6 mps 756 mmHg 77%
    05:00 +27°C° 0 mm 6 mps 756 mmHg 76%
    06:00 +28°C° 0 mm 6 mps 757 mmHg 75%
    07:00 +29°C° 0 mm 6 mps 757 mmHg 69%
    08:00 +30°C° 0 mm 6 mps 757 mmHg 63%
    09:00 +32°C° 0 mm 7 mps 757 mmHg 56%
    10:00 +33°C° 0 mm 7 mps 757 mmHg 54%
    11:00 +33°C° 0 mm 7 mps 756 mmHg 52%
    12:00 +34°C° 0 mm 7 mps 755 mmHg 49%
    13:00 +34°C° 0 mm 7 mps 755 mmHg 52%
    14:00 +33°C° 0 mm 7 mps 754 mmHg 54%
    15:00 +33°C° 0 mm 6 mps 754 mmHg 56%
    16:00 +32°C° 0 mm 6 mps 754 mmHg 61%
    17:00 +30°C° 0 mm 6 mps 754 mmHg 66%
    18:00 +29°C° 0 mm 5 mps 754 mmHg 71%
    19:00 +28°C° 0 mm 6 mps 755 mmHg 74%
    20:00 +28°C° 0 mm 6 mps 755 mmHg 76%
    21:00 +28°C° 0 mm 6 mps 756 mmHg 78%
    22:00 +28°C° 0 mm 6 mps 756 mmHg 78%
    23:00 +28°C° 0 mm 6 mps 755 mmHg 79%

    22 November, Friday

    Time Temperature Precipitation Wind Pressure Humidity
    00:00 +27°C° 0 mm 6 mps 755 mmHg 79%
    01:00 +27°C° 0 mm 6 mps 755 mmHg 79%
    02:00 +27°C° 0 mm 6 mps 755 mmHg 78%
    03:00 +27°C° 0 mm 6 mps 755 mmHg 78%
    04:00 +28°C° 0.1 mm 6 mps 755 mmHg 76%
    05:00 +28°C° 0.1 mm 6 mps 755 mmHg 75%
    06:00 +28°C° 0.1 mm 6 mps 756 mmHg 73%
    07:00 +28°C° 0.1 mm 6 mps 756 mmHg 70%
    08:00 +29°C° 0.1 mm 6 mps 757 mmHg 68%
    09:00 +30°C° 0.1 mm 6 mps 757 mmHg 65%
    10:00 +32°C° 0 mm 6 mps 757 mmHg 61%
    11:00 +33°C° 0 mm 6 mps 756 mmHg 56%
    12:00 +34°C° 0 mm 6 mps 756 mmHg 51%
    13:00 +33°C° 0 mm 6 mps 755 mmHg 52%
    14:00 +33°C° 0 mm 6 mps 754 mmHg 53%
    15:00 +33°C° 0 mm 6 mps 754 mmHg 55%
    16:00 +32°C° 0 mm 5 mps 754 mmHg 59%
    17:00 +30°C° 0 mm 5 mps 754 mmHg 64%
    18:00 +29°C° 0 mm 4 mps 755 mmHg 68%
    19:00 +28°C° 0 mm 5 mps 755 mmHg 72%
    20:00 +28°C° 0 mm 5 mps 756 mmHg 76%
    21:00 +28°C° 0 mm 5 mps 756 mmHg 79%
    22:00 +28°C° 0 mm 5 mps 756 mmHg 80%
    23:00 +28°C° 0 mm 5 mps 756 mmHg 81%

    23 November, Saturday

    Time Temperature Precipitation Wind Pressure Humidity
    00:00 +28°C° 0 mm 5 mps 755 mmHg 82%
    01:00 +28°C° 0 mm 5 mps 755 mmHg 81%
    02:00 +28°C° 0 mm 5 mps 755 mmHg 81%
    03:00 +28°C° 0 mm 5 mps 754 mmHg 80%
    04:00 +28°C° 0.4 mm 5 mps 755 mmHg 80%
    05:00 +28°C° 0.4 mm 5 mps 755 mmHg 80%
    06:00 +28°C° 0.4 mm 5 mps 756 mmHg 80%
    07:00 +29°C° 0.8 mm 6 mps 756 mmHg 76%
    08:00 +30°C° 0.8 mm 6 mps 757 mmHg 71%
    09:00 +32°C° 0.8 mm 6 mps 757 mmHg 67%
    10:00 +32°C° 0.7 mm 6 mps 757 mmHg 66%
    11:00 +33°C° 0.7 mm 6 mps 756 mmHg 64%
    12:00 +33°C° 0.7 mm 6 mps 756 mmHg 63%
    13:00 +33°C° 0.1 mm 6 mps 756 mmHg 63%
    14:00 +33°C° 0.1 mm 6 mps 755 mmHg 63%
    15:00 +33°C° 0.1 mm 6 mps 754 mmHg 64%
    16:00 +32°C° 0 mm 6 mps 755 mmHg 67%
    17:00 +30°C° 0 mm 5 mps 755 mmHg 71%
    18:00 +29°C° 0 mm 5 mps 755 mmHg 75%
    19:00 +29°C° 0.3 mm 5 mps 755 mmHg 76%
    20:00 +29°C° 0.3 mm 5 mps 756 mmHg 77%
    21:00 +29°C° 0.3 mm 5 mps 757 mmHg 78%
    22:00 +29°C° 0.6 mm 5 mps 756 mmHg 79%
    23:00 +29°C° 0.6 mm 6 mps 756 mmHg 80%
    Show more